Weather Roundup
Issued by NWS Chicago, IL

Home | Current Version | Previous Version | Graphics & Text | Print | Product List | Glossary On
Versions: 1 2 3 4 5 6 7 8 9 10 11 12 13 14 15 16 17 18 19 20 21 22 23 24 25 26 27 28 29 30 31 32 33 34 35 36 37 38 39 40 41 42 43 44 45 46 47 48 49 50
000
NZUS59 KLOT 170603
HRRLOT

CHICAGO AREA WEATHER ROUNDUP
NATIONAL WEATHER SERVICE CHICAGO/ROMEOVILLE IL
1200 AM CST SUN DEC 17 2017

NOTE: "FAIR" INDICATES FEW OR NO CLOUDS BELOW 12,000 FEET WITH NO
SIGNIFICANT WEATHER AND/OR OBSTRUCTIONS TO VISIBILITY.

* THESE STATIONS ARE NOT UNDER NWS QUALITY CONTROL. THEY ALSO MAY NOT
  REPORT WEATHER SUCH AS PRECIPITATION OR FOG.

ILZ005-006-012>014-019>023-170700-
NORTHEAST ILLINOIS

CITY           SKY/WX    TMP DP  RH WIND       PRES   REMARKS
OHARE          CLOUDY    32  29  88 N6        30.04F WCI  26
6HR MIN TEMP:  27; 6HR MAX TEMP:  39;

MIDWAY         CLOUDY    35  32  88 NE5       30.04F WCI  31
6HR MIN TEMP:  34; 6HR MAX TEMP:  43;

AURORA         CLOUDY    31  29  92 NE7       30.05F WCI  24
6HR MIN TEMP:  27; 6HR MAX TEMP:  32;

LANSING*       CLOUDY    27  24  90 CALM      30.05F
WAUKEGAN       CLOUDY    35  34  96 NE8       30.08S FOG     WCI  29
6HR MIN TEMP:  28; 6HR MAX TEMP:  36;

DUPAGE AIRPORT CLOUDY    27  27 100 N7        30.03F FOG     WCI  19
6HR MIN TEMP:  25; 6HR MAX TEMP:  33;

WHEELING       CLOUDY    30  29  96 N3        30.08S
6HR MIN TEMP:  28; 6HR MAX TEMP:  36;

NORTHERLY ISL    N/A     36  34  92 N7          N/A
$$

WIZ051-052-058>065-066-070>072-170700-
SOUTHEAST WISCONSIN

CITY           SKY/WX    TMP DP  RH WIND       PRES   REMARKS
MILWAUKEE      CLOUDY    35  32  88 E9        30.10F WCI  28
6HR MIN TEMP:  35; 6HR MAX TEMP:  36;

KENOSHA*       CLOUDY    36  31  82 NE10      30.09F
RACINE*        CLOUDY    34  31  88 NE7       30.11F WCI  28
$$

INZ001>003-010>013-019-020-170700-
NORTHWEST INDIANA

CITY           SKY/WX    TMP DP  RH WIND       PRES   REMARKS
GARY*          CLOUDY    27  25  92 CALM      30.06F
6HR MIN TEMP:  26; 6HR MAX TEMP:  34;

MICHIGAN CITY* NOT AVBL
RENSSELAER*    NOT AVBL
VALPARAISO     CLOUDY    35  27  72 CALM      30.06F
$$

LMZ740>746-170700-
SOUTHERN LAKE MICHIGAN

STATION/POSITION TIME  SKY/WX   TEMP WIND        PRES    VSBY
                                AIR  DIR/SP/G
                 (UTC)          (F)  (DEG/KT/KT) (MB)    (MI)
HARRISON CRIB    0540            40   50/  8/  8   N/A
BURNHAM HARBOR   0600            36  360/  5/  6   N/A
CALUMET HARBOR   0530            34  340/  4/  4 1017.1F
BURNS HARBOR     0540            38  170/  4/  8 1018.3F
MICHIGAN CITY    0540            36  130/  6/  7   N/A
$$

ABBREVIATIONS USED IN REMARKS
   TC - TEMPERATURE IN CELSIUS
  WCI - WIND CHILL INDEX
   HX - HEAT INDEX
  VSB - VISIBILITY
$$




USA.gov is the U.S. government's official web portal to all federal, state and local government web resources and services.